{"data":{"norad_id":46794,"intl_designator":"2020-074BH","name":"STARLINK-1942","alt_names":[],"object_type":"PAYLOAD","status":"ACTIVE","operator":null,"country":"US","launch_date":"2020-10-24","launch_site_code":"AFETR","launch_vehicle":null,"mission":null,"orbit_class":"UNKNOWN","rcs_meters":null,"size_class":null,"mass_kg":null,"dimensions":null,"purposes":["comms"],"wikipedia_slug":null,"has_3d_model":false,"image_url":null,"decayed_at":null,"tle_current":{"epoch":"2026-09-18T20:10:13.290240Z","epoch_age_seconds":169183,"freshness":"FRESH","line1":"1 46794U 20074BH  26261.84043160  .11258080  12489-4  38794-3 0  9993","line2":"2 46794  53.0135  57.0791 0007748 276.9741  83.0426 16.43977437327433","mean_motion":16.43977437,"eccentricity":0.0007748,"inclination_deg":53.0135,"raan_deg":57.0791,"arg_perigee_deg":276.9741,"mean_anomaly_deg":83.0426,"bstar":0.00038794,"rev_number":32743,"period_min":87.592443034241,"perigee_km":150.18124965646,"apogee_km":160.30537578906,"semimajor_km":6533.3803127228,"source":"CELESTRAK","updated_at":"2026-09-19T09:01:38.446126Z"}}}